[[{"header":{"parameterUnit":"m.s-1","parameterCategory":2,"la1":30.2991,"la2":30.254,"lo1":-89.0895,"lo2":-89.0444,"dy":0.0017,"dx":0.0017,"nx":28,"ny":28,"refTime":"2024-04-22T03:00:00:Z","depth":"0","parameterNumber":2,"parameterNumberName":"U-component_of_CURRENTS"},"data":[0,0,0,0,0,0,0,0,0,0,0,0,0,0,0,0,0,0,0,0,0,0,0,0,0,0,0,0,0,0,0,0,0,0,0,0,0,0,0,0,0,0,0,0,0,0,0,0,0,0,0,0,0,0,0,0,0,0,0.1919,0.192,0,0.1952,0.1952,0.1952,0.1948,0.1948,0.1947,0.1947,0.1971,0.1972,0.1973,0,0,0,0,0,0,0,0,0,0,0,0,0,0.1874,0.1875,0.1919,0.192,0.192,0.1952,0.1952,0.1952,0.1948,0.1948,0.1947,0.1947,0.1971,0.1972,0.1973,0,0,0,0,0,0,0,0,0,0,0,0,0,0.1898,0.1875,0.1919,0.1923,0.1924,0.1952,0.1952,0.1952,0.1948,0.1948,0.1947,0.1946,0.1971,0.1972,0.1974,0.1995,0,0,0.1978,0.1979,0,0,0,0,0,0,0,0,0.1896,0.1899,0.1922,0.1923,0.1924,0.1947,0.1945,0.1967,0.1948,0.1937,0.1947,0.1946,0.1964,0.1966,0.1971,0.1996,0.1997,0.1978,0.1979,0.198,0.198,0,0,0,0,0,0,0,0.1895,0.1898,0.1931,0.1923,0.1924,0.1931,0.1933,0.1949,0.1952,0.1938,0.1938,0.1945,0.1964,0.197,0.1972,0.1997,0.1978,0.198,0.1981,0.1981,0.2058,0.2059,0,0,0,0,0,0,0.1894,0.1896,0.193,0.1932,0.191,0.1932,0.1934,0.1939,0.1952,0.1954,0.1945,0.1944,0.1967,0.197,0.1973,0.2012,0.198,0.1981,0.1982,0.2057,0.2058,0.2059,0,0,0,0,0,0,0.1892,0.1896,0.1928,0.1916,0.1921,0.1933,0.1938,0.194,0.1947,0.1958,0.1959,0.1952,0.1967,0.197,0.1992,0.2012,0.1982,0.1983,0.2055,0.2057,0.2058,0.2081,0,0,0,0,0,0,0.1891,0.1895,0.1901,0.1916,0.1921,0.195,0.1939,0.1941,0.1953,0.1952,0.1964,0.1966,0.1967,0.199,0.1994,0.2014,0.1985,0.2054,0.2056,0.2058,0.2079,0.2084,0.2087,0,0,0,0,0,0.1889,0.1899,0.1901,0.1906,0.1928,0.1951,0.1955,0.1961,0.1954,0.1964,0.197,0.1965,0.2006,0.1992,0.1996,0.2017,0.2053,0.2055,0.2058,0.2077,0.2083,0.2087,0,0,0,0,0,0,0.1884,0.1901,0.1903,0.1918,0.1936,0.1951,0.1962,0.1965,0.1978,0.1975,0.1978,0.1981,0.2009,0.2012,0.1997,0.2046,0.203,0.2033,0.2043,0.2048,0.2052,0.203,0.1986,0,0,0,0,0,0.1886,0.1896,0.1915,0.1928,0.1937,0.195,0.1961,0.1965,0.1978,0.1982,0.1991,0.2004,0.2024,0.2034,0.2049,0.2076,0.2131,0.2094,0.2098,0.2101,0.2087,0.2172,0.2182,0.2067,0.2067,0.2067,0,0,0.1887,0.1899,0.1904,0.1928,0.194,0.1958,0.1954,0.1973,0.1984,0.1984,0.2002,0.2019,0.2034,0.2064,0.2077,0.2068,0.2181,0.2104,0.2107,0.209,0.2175,0.2187,0.2197,0.2069,0.2069,0.2068,0,0,0.1896,0.1905,0.1917,0.1935,0.1958,0.1967,0.1973,0.1992,0.1997,0.202,0.2025,0.2047,0.2077,0.2091,0.2102,0.2138,0.2199,0.2154,0.2156,0.224,0.225,0.2259,0.2423,0.2446,0.2156,0.2156,0.2156,0,0.1896,0.1914,0.1926,0.1945,0.1958,0.1971,0.1987,0.1999,0.2022,0.2035,0.2027,0.2087,0.2086,0.2134,0.2132,0.2146,0.2234,0.2135,0.2246,0.2255,0.2264,0.2429,0.2454,0.2157,0.2157,0.2157,0.2157,0,0.1916,0.1931,0.1941,0.1965,0.1982,0.1999,0.2016,0.2034,0.204,0.2057,0.2103,0.2116,0.216,0.216,0.2146,0.2214,0.2276,0.2243,0.2232,0.2277,0.2449,0.2475,0.2159,0.2159,0.2158,0.2158,0,0,0.1908,0.1946,0.1949,0.1961,0.1992,0.2006,0.203,0.206,0.2094,0.2111,0.2174,0.2169,0.2196,0.2208,0.222,0.2255,0.2401,0.2267,0.2271,0.243,0.2668,0.2646,0.2673,0.2396,0.2398,0.24,0.2792,0,0.1918,0.1948,0.1966,0.1993,0.2007,0.203,0.2056,0.2086,0.2121,0.2191,0.2211,0.2282,0.2215,0.2266,0.2287,0.2381,0.2458,0.2302,0.2598,0.2608,0.258,0.2696,0.2628,0.2962,0.2817,0.2822,0.2825,0,0.1929,0.1946,0.1974,0.2007,0.2017,0.2044,0.2097,0.2126,0.2215,0.2257,0.2324,0.2374,0.2462,0.2391,0.2574,0.2491,0.2571,0.2624,0.2641,0.2613,0.263,0.2877,0.3015,0.2895,0.2865,0.2862,0.2859,0,0.1912,0.1948,0.1968,0.1981,0.2027,0.2052,0.2082,0.2151,0.2205,0.2337,0.2429,0.2521,0.2636,0.2707,0.2798,0.2724,0.3013,0.2945,0.3017,0.3023,0.3013,0.3009,0.3053,0.3068,0.3067,0.3066,0.3065,0,0.1916,0.1926,0.1968,0.1983,0.2018,0.2054,0.2121,0.2171,0.2296,0.2403,0.2481,0.261,0.271,0.2872,0.2908,0.3076,0.3133,0.3053,0.311,0.3027,0.302,0.2948,0.2878,0.3081,0.3078,0.3075,0.3072,0,0.1909,0.1924,0.1957,0.2007,0.2015,0.2055,0.2147,0.2231,0.2334,0.2499,0.2569,0.2762,0.2979,0.3088,0.3278,0.3264,0.3311,0.3425,0.3356,0.3391,0.327,0.3205,0.3229,0.3129,0.3597,0.3599,0.36,0,0.191,0.1928,0.1977,0.2006,0.2037,0.2091,0.2157,0.2248,0.236,0.2581,0.2698,0.2948,0.3092,0.3396,0.3467,0.3628,0.3435,0.3627,0.3404,0.328,0.3252,0.3076,0.2974,0.3476,0.3477,0.3477,0.3477,0,0.1931,0.1957,0.1994,0.2037,0.2101,0.2148,0.225,0.2325,0.2474,0.2609,0.2799,0.2919,0.3242,0.3372,0.3583,0.3634,0.3435,0.3631,0.3519,0.3167,0.2968,0.2893,0.326,0.3478,0.3478,0.3478,0.3478,0.3478,0.1961,0.1987,0.2031,0.2072,0.2124,0.2169,0.2193,0.233,0.2435,0.2606,0.2795,0.2954,0.3235,0.3505,0.3531,0.3543,0.3461,0.3439,0.3398,0.3252,0.302,0.3403,0.363,0.3631,0.3632,0.3632,0.3633,0,0.1979,0.1999,0.2055,0.2072,0.2101,0.213,0.2227,0.2248,0.2326,0.2555,0.2688,0.2981,0.3144,0.3311,0.3463,0.3345,0.3144,0.3232,0.2963,0.289,0.3291,0.3139,0.3246,0.3246,0.3246,0.3246,0.3246,0.3246,0.1985,0.2017,0.2028,0.202,0.2029,0.2014,0.2034,0.2084,0.2202,0.2367,0.2541,0.2746,0.3051,0.3271,0.3234,0.3144,0.2851,0.2757,0.2673,0.2943,0.2956,0.2968,0.2805,0.284,0.284,0.2165,0.216,0.2156]},{"header":{"parameterUnit":"m.s-1","parameterCategory":2,"la1":30.2991,"la2":30.254,"lo1":-89.0895,"lo2":-89.0444,"dy":0.0017,"dx":0.0017,"nx":28,"ny":28,"refTime":"2024-04-22T03:00:00:Z","depth":"0","parameterNumber":3,"parameterNumberName":"V-component_of_CURRENTS"},"data":[0,0,0,0,0,0,0,0,0,0,0,0,0,0,0,0,0,0,0,0,0,0,0,0,0,0,0,0,0,0,0,0,0,0,0,0,0,0,0,0,0,0,0,0,0,0,0,0,0,0,0,0,0,0,0,0,0,0,-0.0016,-0.0017,0,-0.0055,-0.0056,-0.0056,-0.0092,-0.0092,-0.0093,-0.0093,-0.019,-0.0192,-0.0194,0,0,0,0,0,0,0,0,0,0,0,0,0,0.0025,0.0024,-0.0016,-0.0017,-0.0017,-0.0055,-0.0056,-0.0056,-0.0091,-0.0092,-0.0093,-0.0093,-0.0189,-0.0192,-0.0194,0,0,0,0,0,0,0,0,0,0,0,0,0,-0.0001,0.0024,-0.0016,-0.004,-0.0043,-0.0055,-0.0056,-0.0056,-0.0091,-0.0092,-0.0093,-0.0093,-0.0188,-0.0191,-0.0194,-0.0199,0,0,-0.0204,-0.0205,0,0,0,0,0,0,0,0,0.0001,-0.0002,-0.0036,-0.0038,-0.0041,-0.007,-0.0077,-0.0107,-0.0091,-0.0072,-0.0093,-0.0094,-0.0155,-0.0161,-0.0165,-0.0204,-0.0208,-0.0204,-0.0206,-0.0208,-0.0209,0,0,0,0,0,0,0,0.0003,-0.0001,-0.0031,-0.0036,-0.004,-0.005,-0.0054,-0.0082,-0.0109,-0.0074,-0.0077,-0.0082,-0.0157,-0.0161,-0.0167,-0.0209,-0.0204,-0.0207,-0.0209,-0.021,-0.0277,-0.0277,0,0,0,0,0,0,0.0007,0.0001,-0.003,-0.0032,-0.0022,-0.005,-0.0055,-0.0059,-0.0108,-0.0116,-0.0081,-0.0083,-0.0156,-0.0164,-0.0171,-0.0197,-0.0208,-0.0211,-0.0212,-0.0277,-0.0277,-0.0277,0,0,0,0,0,0,0.0008,0.0005,-0.0028,-0.0017,-0.0022,-0.005,-0.0055,-0.006,-0.0067,-0.0113,-0.0122,-0.0083,-0.0157,-0.0167,-0.0199,-0.0201,-0.0212,-0.0215,-0.0277,-0.0277,-0.0277,-0.0239,0,0,0,0,0,0,0.0009,0.0005,0.0006,-0.0017,-0.0023,-0.0032,-0.0054,-0.006,-0.0069,-0.0072,-0.0118,-0.0128,-0.0158,-0.0194,-0.0203,-0.0205,-0.0217,-0.0277,-0.0277,-0.0277,-0.024,-0.0237,-0.0235,0,0,0,0,0,0.0011,0.0017,0.0007,0.0003,-0.0021,-0.0031,-0.0035,-0.0057,-0.0068,-0.0067,-0.0102,-0.0126,-0.0199,-0.0197,-0.0206,-0.021,-0.0277,-0.0277,-0.0277,-0.0241,-0.0238,-0.0235,0,0,0,0,0,0,0.0041,0.0013,0.0001,-0.0001,-0.0014,-0.0038,-0.0038,-0.0052,-0.0077,-0.0082,-0.0127,-0.0138,-0.0165,-0.0191,-0.0188,-0.0228,-0.0241,-0.0242,-0.0211,-0.0208,-0.0205,-0.0178,-0.022,0,0,0,0,0,0.0047,0.0041,0.0016,0.0017,0.0011,-0.0012,-0.0019,-0.0032,-0.0058,-0.0068,-0.0101,-0.0137,-0.0169,-0.0192,-0.0219,-0.0243,-0.0227,-0.0251,-0.0248,-0.0246,-0.023,-0.0226,-0.022,-0.0276,-0.0276,-0.0276,0,0,0.006,0.0044,0.0041,0.0023,0.001,0.0005,-0.0017,-0.0023,-0.0028,-0.0076,-0.0093,-0.0126,-0.0172,-0.0198,-0.0212,-0.0223,-0.0213,-0.0245,-0.0243,-0.0228,-0.0225,-0.0219,-0.0214,-0.0275,-0.0275,-0.0275,0,0,0.008,0.0067,0.0066,0.0055,0.0037,0.0024,0.0024,0.0001,-0.001,-0.0029,-0.0066,-0.0099,-0.0144,-0.0179,-0.0204,-0.0202,-0.0195,-0.0211,-0.0184,-0.018,-0.0175,-0.0171,-0.0102,-0.0092,-0.0216,-0.0216,-0.0216,0,0.0097,0.0087,0.0067,0.0063,0.0057,0.0034,0.0035,0.0022,-0.0007,-0.0007,-0.0029,-0.0077,-0.0134,-0.0158,-0.0172,-0.0196,-0.0166,-0.0194,-0.0175,-0.0171,-0.0167,-0.0098,-0.0088,-0.0214,-0.0214,-0.0215,-0.0215,0,0.0109,0.0103,0.0105,0.0088,0.0084,0.0083,0.0062,0.0061,0.0045,0.0034,0.0023,-0.0038,-0.0053,-0.0096,-0.0145,-0.0147,-0.0121,-0.0166,-0.0179,-0.0159,-0.0088,-0.0077,-0.0211,-0.0212,-0.0213,-0.0213,0,0,0.0144,0.0117,0.0118,0.0124,0.0096,0.0106,0.0097,0.0095,0.0144,0.0083,0.0145,0.0024,0.0025,-0.0002,-0.0054,-0.0087,-0.0051,-0.0117,-0.0118,-0.0039,0.0019,0.003,0.0042,-0.0091,-0.009,-0.009,0.0073,0,0.0159,0.016,0.0139,0.0157,0.016,0.0142,0.0161,0.0161,0.0177,0.024,0.0164,0.0211,0.0055,0.0094,0.0019,-0.0012,-0.0028,-0.0087,-0.002,-0.0017,-0.0005,0.0052,-0.0021,0.0116,0.0084,0.0085,0.0087,0,0.0177,0.0175,0.0188,0.0214,0.022,0.0238,0.0303,0.0328,0.0381,0.0409,0.0411,0.0406,0.0365,0.0258,0.0172,0.0149,0.0088,0.0037,0.0041,0.0044,0.0011,0.008,0.0136,-0.0091,0.0103,0.0102,0.01,0,0.022,0.0219,0.0237,0.0237,0.0259,0.0287,0.0324,0.0381,0.0488,0.0573,0.0702,0.0607,0.0688,0.0522,0.0389,0.0304,0.0341,0.022,0.0176,0.0179,0.0127,0.0123,-0.0025,0.0177,0.0177,0.0176,0.0176,0,0.0249,0.0271,0.0271,0.0286,0.0375,0.0369,0.0518,0.0553,0.071,0.0904,0.0831,0.0994,0.0761,0.075,0.0524,0.0419,0.0452,0.0217,0.0218,0.0143,0.0138,-0.0055,-0.0169,0.0182,0.0181,0.018,0.0179,0,0.032,0.029,0.0347,0.0378,0.04,0.0495,0.0679,0.0846,0.0941,0.1219,0.1286,0.1353,0.1319,0.1092,0.092,0.0688,0.0413,0.048,0.0443,0.0433,0.0105,-0.0001,-0.0054,-0.013,0.0442,0.0443,0.0444,0,0.0361,0.0387,0.045,0.0538,0.0569,0.0703,0.0855,0.0963,0.1177,0.1449,0.1636,0.1706,0.1748,0.1513,0.1121,0.0793,0.0541,0.0548,0.0317,0.0111,-0.0009,-0.008,-0.0147,0.0292,0.0291,0.0291,0.0291,0,0.0498,0.0522,0.0592,0.0746,0.0897,0.1066,0.1275,0.1451,0.1652,0.1838,0.2096,0.2137,0.1956,0.1598,0.119,0.0916,0.0373,0.0532,0.0303,-0.014,-0.021,-0.0289,0.0211,0.0288,0.0288,0.0288,0.0289,0.0289,0.0659,0.0755,0.0866,0.1019,0.1188,0.1417,0.1561,0.1789,0.2049,0.2314,0.2383,0.2426,0.1951,0.135,0.1022,0.0359,0.0388,0.0074,-0.0023,-0.0063,-0.0207,0.0328,0.0396,0.0397,0.0397,0.0398,0.0399,0,0.089,0.0982,0.1145,0.1319,0.1515,0.1552,0.1851,0.1986,0.2221,0.2443,0.2567,0.2312,0.1714,0.1119,0.0258,-0.0166,-0.0334,-0.039,-0.0576,-0.0609,-0.0157,-0.0245,-0.0296,-0.0295,-0.0295,-0.0295,-0.0295,-0.0294,0.1039,0.123,0.1281,0.1579,0.1691,0.1923,0.2062,0.2224,0.2368,0.2506,0.2489,0.2481,0.1966,0.0497,-0.0518,-0.0737,-0.101,-0.104,-0.1118,-0.0924,-0.0892,-0.0861,-0.0975,-0.1178,-0.1179,-0.158,-0.1584,-0.1588]}],[{"header":{"parameterUnit":"m.s-1","parameterCategory":2,"la1":30.2991,"la2":30.254,"lo1":-89.0895,"lo2":-89.0444,"dy":0.0017,"dx":0.0017,"nx":28,"ny":28,"refTime":"2024-04-22T03:00:00:Z","depth":"2","parameterNumber":2,"parameterNumberName":"U-component_of_CURRENTS"},"data":[0,0,0,0,0,0,0,0,0,0,0,0,0,0,0,0,0,0,0,0,0,0,0,0,0,0,0,0,0,0,0,0,0,0,0,0,0,0,0,0,0,0,0,0,0,0,0,0,0,0,0,0,0,0,0,0,0,0,0.1854,0.1855,0,0.1895,0.1895,0.1896,0.1893,0.1893,0.1892,0.1892,0.1961,0.1963,0.1965,0,0,0,0,0,0,0,0,0,0,0,0,0,0.1808,0.1808,0.1854,0.1855,0.1856,0.1895,0.1895,0.1896,0.1893,0.1893,0.1892,0.1892,0.1961,0.1963,0.1966,0,0,0,0,0,0,0,0,0,0,0,0,0,0.1833,0.1809,0.1854,0.1862,0.1863,0.1895,0.1895,0.1896,0.1893,0.1893,0.1892,0.1892,0.196,0.1963,0.1966,0.1995,0,0,0.1976,0.1977,0,0,0,0,0,0,0,0,0.1832,0.1834,0.186,0.1861,0.1863,0.1891,0.1905,0.1931,0.1893,0.1878,0.1892,0.1891,0.1943,0.1948,0.1951,0.1998,0.2001,0.1976,0.1978,0.1979,0.198,0,0,0,0,0,0,0,0.183,0.1833,0.1867,0.1861,0.1863,0.1875,0.1878,0.191,0.191,0.1879,0.188,0.189,0.1944,0.1948,0.1953,0.2002,0.1976,0.1979,0.1981,0.1982,0.211,0.2111,0,0,0,0,0,0,0.183,0.1831,0.1866,0.1869,0.185,0.1876,0.1879,0.188,0.191,0.1914,0.189,0.189,0.1943,0.1949,0.1955,0.2022,0.1979,0.1982,0.1984,0.2109,0.211,0.2112,0,0,0,0,0,0,0.1829,0.1833,0.1864,0.1854,0.1859,0.1878,0.1879,0.1881,0.1893,0.1918,0.1923,0.1901,0.1943,0.1951,0.1994,0.2023,0.1984,0.1987,0.2107,0.2109,0.2111,0.2136,0,0,0,0,0,0,0.1827,0.1832,0.1837,0.1854,0.186,0.1891,0.188,0.1882,0.1901,0.19,0.1929,0.1934,0.1943,0.1989,0.1997,0.2027,0.1989,0.2105,0.2108,0.211,0.2133,0.2138,0.2143,0,0,0,0,0,0.1825,0.1836,0.1836,0.1841,0.1864,0.1892,0.1896,0.1906,0.1902,0.1913,0.1933,0.1934,0.2013,0.1993,0.2002,0.2033,0.2103,0.2107,0.211,0.2131,0.2137,0.2143,0,0,0,0,0,0,0.1819,0.1838,0.1838,0.1854,0.1874,0.1893,0.1908,0.1913,0.1936,0.1939,0.1953,0.196,0.201,0.2021,0.1998,0.2079,0.2059,0.2064,0.2072,0.2078,0.2083,0.2058,0.1992,0,0,0,0,0,0.1821,0.1833,0.1853,0.1867,0.1878,0.1893,0.1907,0.1915,0.1937,0.1946,0.1971,0.1999,0.2031,0.2052,0.2081,0.2127,0.2163,0.2154,0.2159,0.2163,0.215,0.2227,0.2237,0.2123,0.2123,0.2123,0,0,0.1823,0.1836,0.1843,0.1867,0.1882,0.1909,0.19,0.1926,0.1949,0.1953,0.1997,0.202,0.2047,0.2095,0.2119,0.2108,0.2226,0.2168,0.2171,0.2155,0.2231,0.2242,0.2252,0.2125,0.2125,0.2124,0,0,0.184,0.1845,0.1863,0.1883,0.1913,0.1926,0.1936,0.1965,0.1976,0.2019,0.203,0.2063,0.2118,0.2138,0.2155,0.2207,0.2249,0.2229,0.2236,0.2312,0.2322,0.2331,0.2433,0.2451,0.2232,0.2232,0.2232,0,0.1844,0.1864,0.1875,0.1901,0.192,0.1936,0.1962,0.1982,0.2024,0.2043,0.2038,0.2121,0.2134,0.2191,0.2197,0.2217,0.2279,0.2209,0.2318,0.2327,0.2336,0.2439,0.2458,0.2234,0.2234,0.2234,0.2234,0,0.1878,0.1894,0.191,0.1944,0.1966,0.1993,0.202,0.205,0.2066,0.2089,0.2148,0.217,0.2221,0.2231,0.2221,0.2294,0.2328,0.2316,0.2299,0.2349,0.2455,0.2474,0.2236,0.2236,0.2235,0.2235,0,0,0.1885,0.1923,0.193,0.1943,0.1989,0.2007,0.2052,0.2094,0.2137,0.2167,0.2233,0.2248,0.2268,0.2286,0.23,0.2335,0.2448,0.2344,0.2348,0.244,0.2654,0.253,0.254,0.2464,0.2467,0.2469,0.2719,0,0.1909,0.1951,0.1968,0.2009,0.2031,0.2056,0.2101,0.2142,0.2185,0.2262,0.228,0.2356,0.2293,0.2342,0.2362,0.2449,0.2494,0.2383,0.2595,0.2602,0.2479,0.2555,0.2355,0.2546,0.2738,0.2741,0.2743,0,0.1938,0.196,0.1999,0.2035,0.2049,0.2081,0.215,0.2194,0.2291,0.2338,0.2399,0.2445,0.2526,0.2461,0.2602,0.2546,0.2586,0.2622,0.2634,0.251,0.2511,0.252,0.2574,0.2776,0.2773,0.2771,0.2769,0,0.1935,0.1979,0.2005,0.2021,0.2074,0.2097,0.2133,0.2217,0.2287,0.2412,0.2503,0.2583,0.268,0.2727,0.2757,0.2727,0.2901,0.2893,0.2816,0.2812,0.2672,0.2648,0.2964,0.2964,0.2963,0.2963,0.2962,0,0.1955,0.197,0.2005,0.2021,0.2071,0.21,0.2187,0.2239,0.2371,0.2482,0.2549,0.2654,0.2746,0.2837,0.2841,0.2884,0.2985,0.2828,0.2859,0.2678,0.2652,0.2854,0.2838,0.2972,0.297,0.2968,0.2966,0,0.1955,0.1973,0.2008,0.2056,0.2071,0.2114,0.2228,0.2316,0.2421,0.2582,0.2644,0.2789,0.2902,0.2945,0.3064,0.3011,0.3054,0.302,0.2802,0.2796,0.2916,0.2899,0.305,0.3048,0.3046,0.3044,0.3042,0,0.196,0.1977,0.2035,0.2076,0.21,0.217,0.2246,0.2344,0.2447,0.264,0.273,0.2879,0.2931,0.3046,0.3001,0.3024,0.3032,0.2836,0.2697,0.2906,0.2922,0.2908,0.2894,0.2577,0.2572,0.2568,0.2565,0,0.1982,0.2006,0.2048,0.2122,0.2189,0.226,0.2356,0.2428,0.2563,0.2671,0.2792,0.2837,0.2926,0.2834,0.2818,0.2787,0.2817,0.2748,0.3072,0.2535,0.2465,0.2478,0.248,0.2527,0.2531,0.2534,0.2536,0.2537,0.2011,0.2047,0.2108,0.2168,0.2252,0.2305,0.2319,0.241,0.2495,0.253,0.2672,0.2623,0.2676,0.2523,0.2469,0.2439,0.2615,0.2517,0.253,0.2547,0.2395,0.2319,0.2331,0.2333,0.2335,0.2337,0.2339,0,0.2025,0.2067,0.2147,0.2192,0.2243,0.2295,0.2367,0.2294,0.2288,0.2362,0.2351,0.2143,0.2092,0.2139,0.205,0.2065,0.204,0.1986,0.1949,0.1989,0.2024,0.1843,0.1635,0.1632,0.163,0.1628,0,0,0.2037,0.208,0.21,0.214,0.2185,0.2174,0.2172,0.205,0.2029,0.1864,0.1828,0.1898,0.2064,0.1793,0.1798,0.1709,0.1825,0.1645,0.2218,0.2215,0.2246,0.235,0.2118,0,0,0,0,0]},{"header":{"parameterUnit":"m.s-1","parameterCategory":2,"la1":30.2991,"la2":30.254,"lo1":-89.0895,"lo2":-89.0444,"dy":0.0017,"dx":0.0017,"nx":28,"ny":28,"refTime":"2024-04-22T03:00:00:Z","depth":"2","parameterNumber":3,"parameterNumberName":"V-component_of_CURRENTS"},"data":[0,0,0,0,0,0,0,0,0,0,0,0,0,0,0,0,0,0,0,0,0,0,0,0,0,0,0,0,0,0,0,0,0,0,0,0,0,0,0,0,0,0,0,0,0,0,0,0,0,0,0,0,0,0,0,0,0,0,-0.017,-0.017,0,-0.0193,-0.0193,-0.0194,-0.0221,-0.0221,-0.0221,-0.0222,-0.0318,-0.032,-0.0322,0,0,0,0,0,0,0,0,0,0,0,0,0,-0.0145,-0.0146,-0.017,-0.017,-0.017,-0.0193,-0.0193,-0.0194,-0.022,-0.0221,-0.0222,-0.0222,-0.0317,-0.032,-0.0322,0,0,0,0,0,0,0,0,0,0,0,0,0,-0.0161,-0.0146,-0.0169,-0.0187,-0.0188,-0.0193,-0.0193,-0.0194,-0.022,-0.0221,-0.0222,-0.0222,-0.0316,-0.0319,-0.0323,-0.0329,0,0,-0.0332,-0.0334,0,0,0,0,0,0,0,0,-0.016,-0.0162,-0.0184,-0.0185,-0.0187,-0.0205,-0.022,-0.0243,-0.022,-0.0208,-0.0222,-0.0223,-0.0286,-0.0292,-0.0294,-0.0334,-0.0338,-0.0333,-0.0335,-0.0336,-0.0337,0,0,0,0,0,0,0,-0.0159,-0.0161,-0.0179,-0.0184,-0.0186,-0.0192,-0.0195,-0.0224,-0.0244,-0.0209,-0.0211,-0.0214,-0.0288,-0.029,-0.0296,-0.0339,-0.0333,-0.0335,-0.0337,-0.0339,-0.0407,-0.0407,0,0,0,0,0,0,-0.0156,-0.016,-0.0178,-0.0179,-0.0175,-0.0192,-0.0195,-0.0198,-0.0243,-0.0249,-0.0213,-0.0215,-0.0285,-0.0292,-0.03,-0.0321,-0.0336,-0.0339,-0.0341,-0.0407,-0.0407,-0.0407,0,0,0,0,0,0,-0.0155,-0.0157,-0.0177,-0.017,-0.0173,-0.0192,-0.0195,-0.0198,-0.0203,-0.0245,-0.0253,-0.0215,-0.0285,-0.0295,-0.0327,-0.0325,-0.034,-0.0343,-0.0407,-0.0407,-0.0407,-0.0358,0,0,0,0,0,0,-0.0154,-0.0157,-0.0157,-0.017,-0.0174,-0.0175,-0.0194,-0.0198,-0.0204,-0.0206,-0.0249,-0.0258,-0.0287,-0.0322,-0.033,-0.033,-0.0346,-0.0407,-0.0407,-0.0407,-0.036,-0.0356,-0.0353,0,0,0,0,0,-0.0153,-0.0149,-0.0157,-0.016,-0.0174,-0.0174,-0.0176,-0.0192,-0.0203,-0.0199,-0.0233,-0.0257,-0.0326,-0.0324,-0.0334,-0.0335,-0.0407,-0.0407,-0.0407,-0.0361,-0.0357,-0.0353,0,0,0,0,0,0,-0.0138,-0.0152,-0.0161,-0.0162,-0.0166,-0.0179,-0.0178,-0.0188,-0.0209,-0.0215,-0.0257,-0.0268,-0.0293,-0.0321,-0.0317,-0.0353,-0.037,-0.0372,-0.0332,-0.0329,-0.0325,-0.0299,-0.0349,0,0,0,0,0,-0.0134,-0.0136,-0.0148,-0.0147,-0.0149,-0.0163,-0.0165,-0.0173,-0.0193,-0.0202,-0.0231,-0.0267,-0.0298,-0.0319,-0.0345,-0.0368,-0.0383,-0.0375,-0.0371,-0.0368,-0.0353,-0.0373,-0.0369,-0.0406,-0.0406,-0.0406,0,0,-0.0127,-0.0135,-0.0136,-0.0143,-0.0149,-0.0144,-0.0166,-0.0164,-0.0161,-0.0211,-0.022,-0.0254,-0.03,-0.0322,-0.0336,-0.0347,-0.0367,-0.0368,-0.0365,-0.0351,-0.0372,-0.0368,-0.0365,-0.0406,-0.0406,-0.0406,0,0,-0.0107,-0.012,-0.0113,-0.0114,-0.012,-0.0127,-0.0126,-0.0136,-0.0143,-0.0155,-0.0192,-0.0224,-0.0266,-0.0299,-0.0323,-0.0319,-0.0345,-0.0329,-0.0296,-0.0316,-0.0313,-0.031,-0.0327,-0.0326,-0.0332,-0.0332,-0.0332,0,-0.0097,-0.0093,-0.0109,-0.01,-0.0098,-0.0118,-0.0105,-0.0112,-0.0131,-0.0134,-0.0151,-0.0204,-0.0254,-0.028,-0.0285,-0.0311,-0.032,-0.0308,-0.031,-0.0308,-0.0306,-0.0324,-0.0324,-0.033,-0.033,-0.033,-0.033,0,-0.0071,-0.0068,-0.0062,-0.006,-0.0058,-0.0049,-0.0061,-0.0061,-0.0075,-0.0084,-0.0101,-0.0157,-0.0183,-0.0214,-0.0254,-0.0266,-0.0277,-0.0299,-0.0316,-0.0299,-0.032,-0.032,-0.0326,-0.0327,-0.0328,-0.0328,0,0,-0.004,-0.0044,-0.0039,-0.003,-0.0037,-0.0026,-0.0023,-0.0022,0.0002,-0.0034,-0.001,-0.009,-0.0105,-0.0133,-0.0182,-0.0215,-0.0231,-0.0249,-0.0251,-0.0258,-0.0264,-0.0333,-0.0341,-0.0249,-0.0248,-0.0248,-0.0285,0,-0.0013,0.0009,0.0,0.0029,0.0039,0.0026,0.0041,0.004,0.0041,0.0062,0.0,0.0009,-0.0077,-0.0072,-0.0125,-0.019,-0.0229,-0.0218,-0.0286,-0.0288,-0.0345,-0.0343,-0.0285,-0.0318,-0.0286,-0.0286,-0.0286,0,0.0019,0.0029,0.0057,0.0078,0.0084,0.0103,0.0137,0.0155,0.0165,0.0175,0.0162,0.0132,0.0083,0.002,-0.0094,-0.0078,-0.0166,-0.023,-0.0233,-0.0311,-0.0358,-0.0331,-0.0321,-0.0287,-0.0287,-0.0287,-0.0287,0,0.0054,0.0073,0.0098,0.0104,0.0123,0.0143,0.0166,0.0189,0.0244,0.0271,0.0317,0.0246,0.0246,0.0125,-0.0058,-0.0048,-0.0192,-0.019,-0.0337,-0.0343,-0.0315,-0.0319,-0.0269,-0.0269,-0.0269,-0.0268,-0.0268,0,0.0088,0.0113,0.0121,0.0138,0.0199,0.0197,0.0285,0.0304,0.0372,0.0438,0.0394,0.0403,0.0275,0.0158,-0.0008,-0.0197,-0.0161,-0.0325,-0.0357,-0.0299,-0.0301,-0.0291,-0.0293,-0.027,-0.0269,-0.0269,-0.0269,0,0.0136,0.0129,0.0174,0.0201,0.0219,0.0278,0.0385,0.046,0.0505,0.0596,0.0618,0.0559,0.041,0.0225,0.0027,-0.0117,-0.0303,-0.0392,-0.0324,-0.0348,-0.0435,-0.0434,-0.0478,-0.0481,-0.0483,-0.0485,-0.0487,0,0.0163,0.0183,0.0238,0.0285,0.0307,0.0393,0.0465,0.0534,0.0607,0.0648,0.0679,0.0592,0.0491,0.0175,-0.0072,-0.0329,-0.0386,-0.0455,-0.0432,-0.043,-0.0456,-0.0451,-0.0447,-0.0367,-0.0367,-0.0368,-0.0368,0,0.0228,0.0249,0.0292,0.0372,0.045,0.0525,0.0608,0.0667,0.0726,0.0767,0.0721,0.0653,0.0433,0.0188,-0.0136,-0.0319,-0.0398,-0.0471,-0.0479,-0.0342,-0.0333,-0.0357,-0.0354,-0.0372,-0.0371,-0.0371,-0.0371,-0.0371,0.0288,0.0337,0.0385,0.0445,0.055,0.0578,0.0591,0.067,0.0708,0.0748,0.0702,0.0654,0.0485,0.0095,-0.0195,-0.045,-0.0436,-0.0506,-0.05,-0.0495,-0.0495,-0.0493,-0.056,-0.0561,-0.0561,-0.0562,-0.0562,0,0.0314,0.0362,0.0445,0.0484,0.0534,0.0591,0.0636,0.065,0.0629,0.0759,0.074,0.0573,0.0344,0.0132,-0.0219,-0.0456,-0.0438,-0.0543,-0.0443,-0.0438,-0.0434,-0.0428,-0.0477,-0.0478,-0.0478,-0.0478,0,0,0.0335,0.0364,0.0366,0.0395,0.045,0.0469,0.0448,0.0528,0.0621,0.069,0.074,0.0769,0.05,0.026,-0.0055,-0.0255,-0.0295,-0.0304,-0.0346,-0.0185,-0.0178,-0.0389,-0.0373,0,0,0,0,0]}],[{"header":{"parameterUnit":"m.s-1","parameterCategory":2,"la1":30.2991,"la2":30.254,"lo1":-89.0895,"lo2":-89.0444,"dy":0.0017,"dx":0.0017,"nx":28,"ny":28,"refTime":"2024-04-22T03:00:00:Z","depth":"4","parameterNumber":2,"parameterNumberName":"U-component_of_CURRENTS"},"data":[0,0,0,0,0,0,0,0,0,0,0,0,0,0,0,0,0,0,0,0,0,0,0,0,0,0,0,0,0,0,0,0,0,0,0,0,0,0,0,0,0,0,0,0,0,0,0,0,0,0,0,0,0,0,0,0,0,0,0.1106,0.1107,0,0.1179,0.118,0.118,0.1234,0.1235,0.1236,0.1236,0.1269,0.127,0.127,0,0,0,0,0,0,0,0,0,0,0,0,0,0.1002,0.1003,0.1106,0.1107,0.1108,0.1179,0.118,0.118,0.1234,0.1235,0.1236,0.1236,0.1269,0.1269,0.127,0,0,0,0,0,0,0,0,0,0,0,0,0,0.1057,0.1004,0.1106,0.1145,0.1149,0.1179,0.118,0.1181,0.1234,0.1235,0.1236,0.1237,0.1269,0.1269,0.127,0.1255,0,0,0.1271,0.1272,0,0,0,0,0,0,0,0,0.1053,0.106,0.1138,0.1142,0.1147,0.12,0.1155,0.1204,0.1234,0.12,0.1236,0.1237,0.1242,0.1245,0.1256,0.1256,0.1258,0.1271,0.1272,0.1272,0.1272,0,0,0,0,0,0,0,0.105,0.1057,0.1134,0.1139,0.1145,0.1154,0.1163,0.1164,0.1214,0.1203,0.1208,0.1218,0.1245,0.1255,0.1257,0.1258,0.1271,0.1272,0.1272,0.1272,0.1317,0.1318,0,0,0,0,0,0,0.1043,0.1054,0.1131,0.1136,0.1103,0.1155,0.1165,0.1181,0.1215,0.1221,0.1217,0.122,0.1254,0.1256,0.1258,0.1323,0.1272,0.1272,0.1273,0.1316,0.1317,0.1318,0,0,0,0,0,0,0.1041,0.105,0.1129,0.1097,0.1108,0.1156,0.1173,0.1182,0.1217,0.1226,0.1232,0.1247,0.1254,0.1257,0.1286,0.1322,0.1273,0.1273,0.1315,0.1316,0.1318,0.1402,0,0,0,0,0,0,0.1037,0.1048,0.1065,0.1097,0.111,0.1161,0.1173,0.1183,0.1221,0.1226,0.1252,0.1255,0.1255,0.1285,0.1287,0.1322,0.1273,0.1314,0.1316,0.1317,0.1398,0.1406,0.1412,0,0,0,0,0,0.1034,0.1048,0.1065,0.1075,0.1129,0.1161,0.1169,0.1204,0.1222,0.1239,0.1263,0.1256,0.1297,0.1287,0.1288,0.1324,0.1313,0.1315,0.1317,0.1394,0.1404,0.1412,0,0,0,0,0,0,0.1014,0.1056,0.1076,0.1104,0.1138,0.1171,0.1192,0.1216,0.1249,0.126,0.1268,0.1272,0.1313,0.1299,0.1287,0.1339,0.1303,0.1305,0.1362,0.1371,0.1378,0.1357,0.1274,0,0,0,0,0,0.1016,0.1038,0.1079,0.1104,0.1122,0.1161,0.1182,0.1209,0.1239,0.1256,0.1277,0.1294,0.1317,0.1329,0.134,0.1364,0.1361,0.1386,0.1393,0.14,0.1382,0.1433,0.1444,0.1325,0.1325,0.1325,0,0,0.1014,0.1041,0.1054,0.1101,0.113,0.1157,0.1177,0.1216,0.1246,0.1251,0.13,0.1323,0.1329,0.1367,0.1383,0.1363,0.1434,0.1402,0.1408,0.1386,0.1437,0.1449,0.1459,0.1326,0.1326,0.1326,0,0,0.101,0.1048,0.1062,0.1093,0.1143,0.1167,0.1184,0.1233,0.1266,0.1311,0.1329,0.1369,0.1398,0.1416,0.1425,0.1472,0.1474,0.1485,0.1506,0.1558,0.1569,0.1578,0.1599,0.1609,0.1487,0.1487,0.1487,0,0.1007,0.1035,0.1072,0.1096,0.1126,0.1173,0.12,0.1236,0.1291,0.1327,0.1334,0.1415,0.1417,0.1473,0.1487,0.149,0.1513,0.1479,0.157,0.1579,0.1587,0.1606,0.1617,0.1491,0.1491,0.149,0.149,0,0.1013,0.1043,0.1056,0.1103,0.114,0.1171,0.1226,0.1268,0.1316,0.1363,0.1444,0.1467,0.1517,0.1529,0.1518,0.1583,0.158,0.1581,0.1552,0.1605,0.1621,0.163,0.1497,0.1496,0.1494,0.1493,0,0,0.0976,0.1045,0.1052,0.1081,0.115,0.1179,0.1234,0.1303,0.1358,0.1425,0.15,0.1542,0.1584,0.1594,0.161,0.1636,0.1708,0.163,0.1631,0.1657,0.1818,0.1715,0.1714,0.1747,0.1749,0.175,0.181,0,0.0969,0.1001,0.1054,0.1102,0.112,0.1196,0.1253,0.1328,0.1394,0.1477,0.1538,0.1617,0.1605,0.1651,0.168,0.1705,0.1736,0.169,0.1754,0.1755,0.1664,0.1722,0.1756,0.1817,0.1819,0.182,0.1821,0,0.0944,0.0975,0.1008,0.1104,0.1128,0.1182,0.1286,0.1355,0.1476,0.1523,0.1614,0.1683,0.1751,0.1731,0.1807,0.179,0.1801,0.1808,0.1812,0.1684,0.1669,0.175,0.1838,0.1837,0.1835,0.1834,0.1833,0,0.0862,0.0943,0.0968,0.0997,0.111,0.1169,0.1259,0.1378,0.1454,0.1576,0.1635,0.1741,0.1798,0.185,0.1867,0.1863,0.1929,0.1933,0.1849,0.1842,0.1879,0.1869,0.1979,0.1979,0.1979,0.1979,0.1979,0,0.0808,0.0826,0.0942,0.096,0.1038,0.1149,0.127,0.1341,0.1484,0.1576,0.1678,0.1742,0.1832,0.1892,0.1903,0.1894,0.1972,0.1848,0.1854,0.1913,0.1905,0.1886,0.1875,0.1981,0.1981,0.198,0.198,0,0.069,0.075,0.0803,0.0947,0.0994,0.1068,0.1278,0.1365,0.1486,0.1599,0.1649,0.1765,0.1843,0.1906,0.1969,0.192,0.1935,0.1908,0.1951,0.1958,0.1807,0.1799,0.1843,0.184,0.1837,0.1835,0.1833,0,0.0642,0.0638,0.0788,0.0849,0.0923,0.1063,0.1162,0.1327,0.14,0.16,0.1621,0.1764,0.183,0.1823,0.1895,0.1925,0.1899,0.188,0.1846,0.1793,0.1795,0.1791,0.1787,0.1829,0.1829,0.1828,0.1827,0,0.0557,0.0605,0.0663,0.0778,0.0885,0.1,0.1143,0.118,0.137,0.1495,0.1567,0.1649,0.1718,0.1768,0.1784,0.1805,0.1884,0.1853,0.1858,0.1827,0.1778,0.1781,0.178,0.1818,0.182,0.1821,0.1821,0,0.0505,0.0531,0.0617,0.0712,0.0829,0.0898,0.0999,0.1105,0.1196,0.1394,0.1422,0.1574,0.1694,0.1708,0.1737,0.1739,0.1731,0.1665,0.168,0.1691,0.1615,0.1528,0.1498,0,0,0,0,0,0.0465,0.0472,0.0559,0.0648,0.0766,0.0826,0.0961,0.1062,0.1224,0.1233,0.1326,0.1402,0.1492,0.1565,0.1542,0.1682,0.1726,0.1648,0.1652,0.1769,0.1779,0.1705,0,0,0,0,0,0,0.0426,0.0472,0.0513,0.0572,0.0629,0.0726,0.0806,0.0922,0.0928,0.1107,0.1151,0.1307,0.1395,0.1482,0.1509,0.1534,0.1506,0.1749,0.1746,0.1763,0.1772,0.1781,0.1708,0,0,0,0,0]},{"header":{"parameterUnit":"m.s-1","parameterCategory":2,"la1":30.2991,"la2":30.254,"lo1":-89.0895,"lo2":-89.0444,"dy":0.0017,"dx":0.0017,"nx":28,"ny":28,"refTime":"2024-04-22T03:00:00:Z","depth":"4","parameterNumber":3,"parameterNumberName":"V-component_of_CURRENTS"},"data":[0,0,0,0,0,0,0,0,0,0,0,0,0,0,0,0,0,0,0,0,0,0,0,0,0,0,0,0,0,0,0,0,0,0,0,0,0,0,0,0,0,0,0,0,0,0,0,0,0,0,0,0,0,0,0,0,0,0,-0.0073,-0.0073,0,-0.0078,-0.0078,-0.0078,-0.0099,-0.01,-0.01,-0.0101,-0.0148,-0.0149,-0.015,0,0,0,0,0,0,0,0,0,0,0,0,0,-0.0079,-0.0079,-0.0073,-0.0073,-0.0073,-0.0078,-0.0078,-0.0078,-0.0099,-0.01,-0.01,-0.0101,-0.0148,-0.0149,-0.015,0,0,0,0,0,0,0,0,0,0,0,0,0,-0.008,-0.0079,-0.0073,-0.0084,-0.0085,-0.0078,-0.0078,-0.0078,-0.0099,-0.01,-0.01,-0.0101,-0.0148,-0.0149,-0.015,-0.0146,0,0,-0.0154,-0.0155,0,0,0,0,0,0,0,0,-0.008,-0.008,-0.0082,-0.0083,-0.0084,-0.0088,-0.0098,-0.0103,-0.0099,-0.0094,-0.0101,-0.0101,-0.0131,-0.0134,-0.0134,-0.0148,-0.015,-0.0154,-0.0155,-0.0156,-0.0156,0,0,0,0,0,0,0,-0.008,-0.008,-0.0076,-0.0082,-0.0083,-0.0087,-0.0088,-0.0099,-0.0111,-0.0095,-0.0096,-0.0095,-0.0132,-0.0132,-0.0135,-0.0151,-0.0154,-0.0156,-0.0156,-0.0157,-0.0178,-0.0178,0,0,0,0,0,0,-0.0077,-0.008,-0.0076,-0.0076,-0.0083,-0.0086,-0.0088,-0.0087,-0.011,-0.0113,-0.0095,-0.0096,-0.013,-0.0134,-0.0137,-0.0128,-0.0156,-0.0157,-0.0158,-0.0178,-0.0178,-0.0178,0,0,0,0,0,0,-0.0078,-0.0077,-0.0076,-0.0078,-0.0078,-0.0086,-0.0085,-0.0086,-0.0091,-0.0109,-0.0114,-0.0098,-0.0131,-0.0135,-0.0144,-0.0131,-0.0158,-0.0159,-0.0179,-0.0178,-0.0178,-0.0114,0,0,0,0,0,0,-0.0078,-0.0077,-0.0079,-0.0077,-0.0077,-0.0067,-0.0084,-0.0086,-0.0089,-0.0091,-0.0113,-0.0118,-0.0131,-0.0142,-0.0146,-0.0133,-0.016,-0.0179,-0.0178,-0.0178,-0.0116,-0.0112,-0.0107,0,0,0,0,0,-0.0078,-0.0072,-0.0079,-0.0079,-0.0079,-0.0066,-0.0066,-0.0075,-0.0088,-0.0083,-0.01,-0.0117,-0.0142,-0.0143,-0.0147,-0.0134,-0.0179,-0.0179,-0.0178,-0.0118,-0.0112,-0.0107,0,0,0,0,0,0,-0.0078,-0.0074,-0.0081,-0.0076,-0.0071,-0.007,-0.0068,-0.0074,-0.0083,-0.0089,-0.0111,-0.0116,-0.0123,-0.0139,-0.0139,-0.0141,-0.0165,-0.0165,-0.0118,-0.0113,-0.0108,-0.0088,-0.0161,0,0,0,0,0,-0.0078,-0.0074,-0.0069,-0.0067,-0.0063,-0.0067,-0.0066,-0.0068,-0.0074,-0.0078,-0.0093,-0.0111,-0.0122,-0.0126,-0.0142,-0.0137,-0.018,-0.0135,-0.013,-0.0126,-0.0114,-0.017,-0.0169,-0.0176,-0.0176,-0.0176,0,0,-0.008,-0.0076,-0.0075,-0.0066,-0.0066,-0.0043,-0.0068,-0.0061,-0.0042,-0.0082,-0.0072,-0.0098,-0.012,-0.0117,-0.0121,-0.0128,-0.0151,-0.0125,-0.0121,-0.0111,-0.0169,-0.0169,-0.0168,-0.0176,-0.0176,-0.0176,0,0,-0.0063,-0.0074,-0.0057,-0.0047,-0.0038,-0.0033,-0.003,-0.0027,-0.0029,-0.002,-0.0049,-0.006,-0.0077,-0.0082,-0.0089,-0.0069,-0.013,-0.0085,-0.0037,-0.0092,-0.0091,-0.0092,-0.016,-0.0167,-0.0076,-0.0076,-0.0076,0,-0.0065,-0.004,-0.005,-0.0023,-0.001,-0.0024,0.0007,0.0009,0.0008,0.0003,-0.001,-0.0042,-0.0052,-0.0053,-0.0037,-0.0055,-0.0111,-0.0053,-0.0085,-0.0086,-0.0088,-0.0158,-0.0166,-0.0073,-0.0073,-0.0073,-0.0074,0,-0.0026,-0.0005,0.0007,0.0038,0.005,0.0072,0.0079,0.0084,0.0075,0.0067,0.0052,0.0031,0.0008,0.0007,0.0,-0.0013,-0.006,-0.0079,-0.0096,-0.0083,-0.0158,-0.0168,-0.0068,-0.0069,-0.007,-0.0071,0,0,-0.0026,0.0026,0.003,0.0054,0.0085,0.0098,0.0129,0.0144,0.0136,0.0134,0.0117,0.0126,0.0085,0.0076,0.0048,0.0026,-0.0022,-0.002,-0.0025,-0.0083,-0.0169,-0.0138,-0.0146,-0.006,-0.0061,-0.0061,-0.0223,0,0.0011,0.0077,0.009,0.0145,0.0182,0.0179,0.0199,0.0203,0.0187,0.0161,0.0139,0.0106,0.0117,0.0086,0.0072,-0.0016,-0.0044,0.0023,-0.0177,-0.0182,-0.0152,-0.0154,-0.0064,-0.0231,-0.0233,-0.0235,-0.0236,0,0.0052,0.0093,0.0161,0.0197,0.0206,0.0229,0.0236,0.0248,0.0215,0.0192,0.0165,0.0115,0.0085,0.008,-0.0028,0.0002,-0.0065,-0.012,-0.0128,-0.0123,-0.0168,-0.0245,-0.0255,-0.0253,-0.0252,-0.0251,-0.0249,0,0.0072,0.0137,0.0192,0.021,0.0251,0.0262,0.0268,0.0253,0.0237,0.0192,0.015,0.0104,0.0044,-0.0024,-0.0106,-0.0093,-0.0246,-0.0254,-0.0286,-0.0288,-0.0297,-0.0295,-0.0323,-0.0323,-0.0323,-0.0322,-0.0322,0,0.0113,0.0152,0.0201,0.023,0.0248,0.0274,0.0262,0.0257,0.0224,0.0194,0.0151,0.0112,0.0013,-0.0079,-0.0138,-0.0241,-0.0279,-0.0276,-0.0319,-0.0269,-0.0262,-0.0306,-0.0302,-0.0328,-0.0327,-0.0326,-0.0325,0,0.0124,0.017,0.0216,0.0258,0.0261,0.0266,0.0247,0.0224,0.0208,0.0162,0.0142,0.0073,-0.0023,-0.0122,-0.026,-0.0297,-0.0391,-0.0415,-0.0369,-0.0408,-0.0396,-0.0387,-0.0485,-0.0485,-0.0485,-0.0485,-0.0486,0,0.0129,0.0168,0.0209,0.0198,0.021,0.0214,0.0197,0.0207,0.0192,0.0157,0.0132,0.0035,-0.0011,-0.0178,-0.0275,-0.0416,-0.0408,-0.0489,-0.0403,-0.0377,-0.0409,-0.04,-0.0391,-0.0486,-0.0486,-0.0486,-0.0486,0,0.0118,0.0137,0.0161,0.0157,0.0148,0.015,0.0148,0.0152,0.0169,0.0134,0.014,0.0073,-0.0041,-0.0144,-0.0267,-0.0352,-0.0454,-0.0489,-0.0489,-0.0409,-0.0378,-0.0408,-0.0399,-0.0486,-0.0486,-0.0486,-0.0486,0,0.0076,0.0076,0.0103,0.0108,0.0098,0.0123,0.0121,0.014,0.0155,0.0162,0.0162,0.008,0.002,-0.0113,-0.0214,-0.0309,-0.0316,-0.0341,-0.0349,-0.035,-0.0238,-0.0174,-0.0254,0,0,0,0,0,0.0032,0.005,0.0039,0.0078,0.0078,0.0101,0.0103,0.0112,0.0149,0.0168,0.0187,0.0117,-0.0002,-0.0064,-0.0147,-0.0239,-0.0366,-0.0344,-0.0406,-0.0487,-0.0486,-0.0371,0,0,0,0,0,0,-0.0003,0.0,0.0041,0.008,0.0104,0.013,0.0151,0.0164,0.0194,0.0207,0.0154,0.0114,-0.0007,0.0074,-0.0131,-0.0168,-0.0217,-0.0409,-0.0411,-0.0487,-0.0487,-0.0486,-0.0368,0,0,0,0,0]}]]